Weather History for Louisville Bowman, KY

Change the Weather History Date:

Monday, June 17, 2013

  Actual Average Record
Temperature  
Mean Temperature 77 °F 76 °F  
Max Temperature 88 °F 85 °F 95 °F (2007)
Min Temperature 65 °F 66 °F 49 °F (1961)
Degree Days  
Heating Degree Days 0 0  
Month to date heating degree days 0 2  
Since 1 June heating degree days 0 2  
Since 1 July heating degree days 4329 4267  
Cooling Degree Days 12 11  
Month to date cooling degree days 142 151  
Year to date cooling degree days 328 298  
Since 1 June cooling degree days 142 151  
Growing Degree Days 25 (Base 50)    
Moisture  
Dew Point 66 °F    
Average Humidity 78    
Maximum Humidity 100    
Minimum Humidity 55    
Precipitation  
Precipitation 2.89 in 0.14 in 2.89 in (2013)
Month to date precipitation 3.51 2.65  
Year to date precipitation 22.24 22.57  
Sea Level Pressure  
Sea Level Pressure 29.95 in    
Wind  
Wind Speed 2 mph (SW)    
Max Wind Speed 29 mph    
Max Gust Speed 45 mph    
Visibility 5 miles    
Events Fog , Rain , Thunderstorm    
T = Trace of Precipitation, MM = Missing Value Source: NWS Daily Summary

Daily Weather History Graph

Daily Weather History Graph

Search for Another Location

Airport:

Trip Planner

Search our weather history database for the weather conditions in past years. The results will help you decide how hot, cold, wet, or windy it might be!

Date:

Astronomy

Jun. 17, 2013 Rise Set
Actual Time 6:18 AM EDT 9:08 PM EDT
Civil Twilight 5:47 AM EDT 9:40 PM EDT
Nautical Twilight 5:07 AM EDT 10:19 PM EDT
Astronomical Twilight 4:22 AM EDT 11:05 PM EDT
Moon 2:50 PM EDT (6/17) 1:49 AM EDT (6/17)
Length of Visible Light 15h 52m
Length of Day
14h 49m
First Quarter, 60% of the Moon is Illuminated
Jun 17
First Quarter
Jun 23
Full
Jun 30
Last Quarter
Jul 8
New
Jul 15
First Quarter

Hourly Weather History & Observations

Time (EDT) Temp. Heat Index Dew Point Humidity Pressure Visibility Wind Dir Wind Speed Gust Speed Precip Events Conditions
12:53 AM 68.0 °F - 66.0 °F 93% 29.99 in 9.0 mi Calm Calm - N/A   Clear
1:53 AM 68.0 °F - 66.0 °F 93% 29.98 in 8.0 mi Calm Calm - N/A   Scattered Clouds
2:53 AM 66.9 °F - 64.9 °F 93% 29.96 in 7.0 mi Calm Calm - N/A   Clear
3:53 AM 68.0 °F - 64.9 °F 90% 29.96 in 7.0 mi Calm Calm - N/A   Mostly Cloudy
4:53 AM 68.0 °F - 66.0 °F 93% 29.97 in 7.0 mi Calm Calm - N/A   Mostly Cloudy
5:53 AM 69.1 °F - 66.0 °F 90% 29.97 in 5.0 mi Calm Calm - 0.01 in   Overcast
6:53 AM 69.1 °F - 66.9 °F 93% 29.98 in 4.0 mi Calm Calm - N/A   Mostly Cloudy
7:53 AM 70.0 °F - 66.9 °F 90% 29.97 in 7.0 mi Calm Calm - N/A   Mostly Cloudy
8:12 AM 71.6 °F - 66.2 °F 83% 29.99 in 7.0 mi Calm Calm - N/A   Mostly Cloudy
8:53 AM 72.0 °F - 68.0 °F 87% 29.98 in 8.0 mi Calm Calm - N/A   Clear
9:53 AM 75.9 °F - 69.1 °F 79% 29.99 in 9.0 mi South 5.8 mph - N/A   Clear
10:53 AM 80.1 °F 82.9 °F 69.1 °F 69% 29.97 in 9.0 mi Calm Calm - N/A   Clear
11:53 AM 82.0 °F 85.5 °F 69.1 °F 65% 29.96 in 10.0 mi South 4.6 mph - N/A   Clear
12:53 PM 82.9 °F 86.5 °F 69.1 °F 63% 29.96 in 9.0 mi Calm Calm - N/A   Mostly Cloudy
1:53 PM 84.9 °F 89.4 °F 70.0 °F 61% 29.95 in 7.0 mi Calm Calm - N/A   Mostly Cloudy
2:53 PM 86.0 °F 90.1 °F 69.1 °F 57% 29.92 in 7.0 mi NE 4.6 mph - N/A   Overcast
3:53 PM 86.0 °F 89.4 °F 68.0 °F 55% 29.88 in 7.0 mi Calm Calm - N/A   Partly Cloudy
4:53 PM 84.9 °F 88.8 °F 69.1 °F 59% 29.86 in 7.0 mi SE 6.9 mph - N/A   Mostly Cloudy
5:01 PM 82.4 °F 87.2 °F 71.6 °F 70% 29.90 in 1.5 mi West 5.8 mph - 0.10 in Rain Rain
5:10 PM 75.2 °F - 62.6 °F 65% 29.96 in 1.0 mi NNW 21.9 mph 35.7 mph 0.23 in Rain , Thunderstorm Heavy Thunderstorms and Rain
5:16 PM 66.2 °F - 62.6 °F 88% 29.93 in 0.2 mi NE 25.3 mph 43.7 mph 0.83 in Fog , Rain , Thunderstorm Heavy Thunderstorms and Rain
5:18 PM 64.4 °F - 62.6 °F 94% 29.91 in 0.2 mi NE 26.5 mph 44.9 mph 0.97 in Fog , Rain Heavy Rain
5:25 PM 64.4 °F - 62.6 °F 94% 29.92 in 0.2 mi ENE 17.3 mph 44.9 mph 1.22 in Fog , Rain Heavy Rain
5:53 PM 66.0 °F - 64.0 °F 93% 29.93 in 4.0 mi East 11.5 mph 20.7 mph 2.07 in Rain Light Rain
5:55 PM 66.2 °F - 64.4 °F 94% 29.93 in 4.0 mi East 15.0 mph 20.7 mph 0.00 in Rain Light Rain
6:53 PM 68.0 °F - 63.0 °F 84% 29.90 in 4.0 mi SSW 3.5 mph - 0.01 in   Haze
7:28 PM 69.8 °F - 64.4 °F 83% 29.92 in 1.2 mi Calm Calm - 0.09 in Rain Light Rain
7:36 PM 68.0 °F - 64.4 °F 88% 29.93 in 2.0 mi Variable 3.5 mph - 0.21 in Rain Heavy Rain
7:53 PM 69.1 °F - 64.9 °F 87% 29.96 in 2.0 mi West 5.8 mph - 0.25 in Rain Light Rain
8:07 PM 68.0 °F - 64.4 °F 88% 29.97 in 0.8 mi WSW 6.9 mph - 0.17 in Rain Heavy Rain
8:23 PM 66.2 °F - 64.4 °F 94% 29.97 in 1.5 mi SSW 6.9 mph - 0.30 in Rain Rain
8:28 PM 66.2 °F - 64.4 °F 94% 29.97 in 3.0 mi Variable 4.6 mph - 0.31 in Rain Light Rain
8:33 PM 68.0 °F - 64.4 °F 88% 29.97 in 1.8 mi NW 4.6 mph - 0.35 in Rain Heavy Rain
8:43 PM 66.2 °F - 64.4 °F 94% 29.97 in 3.0 mi West 5.8 mph - 0.36 in Rain Light Rain
8:53 PM 68.0 °F - 64.9 °F 90% 29.97 in 6.0 mi Calm Calm - 0.37 in Rain Light Rain
9:53 PM 66.9 °F - 66.0 °F 97% 29.99 in 5.0 mi WSW 4.6 mph - 0.12 in Rain Light Rain
10:53 PM 66.9 °F - 64.9 °F 93% 29.95 in 6.0 mi SSW 5.8 mph - 0.06 in Rain Light Rain
11:53 PM 66.9 °F - 64.9 °F 93% 29.95 in 7.0 mi North 5.8 mph - 0.00 in   Overcast